EST,Max TemperatureF,Mean TemperatureF,Min TemperatureF,Max Dew PointF,MeanDew PointF,Min DewpointF,Max Humidity, Mean Humidity, Min Humidity, Max Sea Level PressureIn, Mean Sea Level PressureIn, Min Sea Level PressureIn, Max VisibilityMiles, Mean VisibilityMiles, Min VisibilityMiles, Max Wind SpeedMPH, Mean Wind SpeedMPH, Max Gust SpeedMPH,PrecipitationIn, CloudCover, Events, WindDirDegrees
2013-1-1,28,16,5,25,11,-4,93,71,47,29.88,29.68,29.55,10,7,1,16,4,37,0.02,5,Snow,292
2013-1-2,12,0,-15,1,-5,-22,85,69,51,30.18,29.91,29.76,10,8,2,13,4,21,0.00,5,Snow,324
2013-1-3,12,-4,-20,-1,-10,-25,83,68,46,30.21,30.08,29.85,10,10,7,7,1,,0.00,3,,334
2013-1-4,30,16,1,23,14,-2,85,74,64,29.89,29.75,29.64,10,8,4,15,2,26,0.00,8,Snow,265
2013-1-5,30,15,0,25,15,-7,86,71,54,30.27,29.95,29.66,10,5,1,20,7,34,0.02,6,Snow,304
2013-1-6,25,13,1,22,16,-3,93,83,74,30.20,29.93,29.84,10,4,1,4,0,,0.07,8,Snow,30
2013-1-7,28,10,-9,23,11,-15,88,76,48,30.37,30.15,29.88,10,8,2,12,2,16,0.00,5,Snow,321
2013-1-8,39,14,-11,21,7,-16,86,70,43,30.37,30.28,30.20,10,10,8,10,2,21,0.00,1,,341
2013-1-9,37,22,6,30,22,2,93,82,65,30.38,30.08,29.86,10,6,0,7,1,,0.03,5,Fog-Snow,120
2013-1-10,36,31,21,30,24,15,85,67,55,30.54,30.23,29.88,10,8,1,15,8,33,0.01,7,Snow,303
2013-1-11,34,20,7,28,17,2,88,75,56,30.54,30.36,30.14,10,10,7,7,1,,0.00,4,,147
2013-1-12,43,36,30,34,31,28,100,88,70,30.18,30.11,30.06,10,6,0,6,2,,0.00,6,Fog,351
2013-1-13,46,39,32,39,33,30,96,91,76,30.14,30.03,29.90,10,5,0,6,0,,0.00,6,Fog,185
2013-1-14,52,42,32,43,32,19,93,75,55,30.25,30.00,29.79,10,8,2,16,3,29,0.00,6,Rain,298
2013-1-15,32,26,19,19,17,14,85,64,51,30.31,30.27,30.22,10,10,9,8,4,,0.00,6,,318
2013-1-16,27,24,21,25,22,17,93,85,74,30.24,29.96,29.76,10,4,0,6,1,,0.25,8,Fog-Snow,339
2013-1-17,32,20,7,27,13,-11,93,69,39,30.13,29.86,29.70,10,7,1,18,3,32,0.00,5,Snow,294
2013-1-18,14,2,-9,-9,-14,-19,78,49,32,30.37,30.27,30.12,10,10,10,10,4,18,0.00,1,,283
2013-1-19,28,13,-2,24,7,-7,88,82,77,30.27,30.05,29.81,10,5,1,0,0,,0.05,8,Snow,-1
2013-1-20,45,28,12,32,19,0,93,71,38,29.86,29.58,29.40,10,6,1,21,5,37,0.03,6,Rain-Snow,277
2013-1-21,18,10,0,6,-3,-6,83,57,35,30.01,29.93,29.80,10,9,6,12,6,21,0.00,5,,319
2013-1-22,14,6,-2,5,-2,-18,85,72,41,30.01,29.79,29.71,10,6,1,12,2,32,0.00,7,Snow,288
2013-1-23,0,-4,-9,-17,-21,-24,62,50,38,30.12,30.06,29.93,10,10,10,10,7,20,0.00,1,,295
2013-1-24,6,-2,-11,-11,-17,-23,66,53,31,30.24,30.09,29.97,10,9,4,14,7,26,0.00,5,,289
2013-1-25,10,4,-2,-3,-9,-12,67,59,44,30.29,30.18,30.08,10,8,2,12,8,24,0.00,5,,286
2013-1-26,12,2,-9,0,-6,-14,79,59,35,30.19,30.10,30.05,10,10,8,15,3,21,0.00,4,,313
2013-1-27,16,8,-4,0,-6,-12,75,56,34,30.47,30.35,30.11,10,10,9,13,5,24,0.00,1,,296
2013-1-28,17,4,-9,14,5,-16,88,75,36,30.46,30.17,29.99,10,5,1,0,0,,0.09,7,Snow,-1
2013-1-29,30,14,-2,26,12,-8,92,82,66,30.21,30.12,30.01,10,9,2,4,0,,0.02,2,Rain,330
2013-1-30,55,42,30,48,37,27,100,92,77,30.04,29.58,29.34,10,5,0,10,2,,0.19,7,Fog-Rain,15
2013-1-31,55,40,24,52,32,9,100,79,49,29.35,29.08,28.79,10,4,0,18,6,36,0.86,8,Fog-Rain-Snow,253